This demonstration page uses our WeatherBlox Daily Observations layout. Learn more.

Left ArrowRight Arrow

Hourly Observations for October 3, 2019

Temp ( °F °C ) Dew Point ( °F °C ) Humidity (%) Winds ( mph kmh ) Pressure ( in mb ) Visibility ( mi km ) Precip ( " mm )
12:53 am 00:53 Cloudy 76 24.4 67 19.4 74 74 SSW 3 6 29.87 1012 10 16 0.00 0.00
1:53 am 01:53 Clear 75 23.9 67 19.4 76 76 Calm 29.87 1012 10 16 0.00 0.00
2:53 am 02:53 Clear 73 22.8 66 18.9 79 79 E 5 7 29.87 1012 10 16 0.00 0.00
3:53 am 03:53 Clear 71 21.7 65 18.3 81 81 E 6 9 29.86 1011 10 16 0.00 0.00
4:53 am 04:53 Clear 71 21.7 65 18.3 81 81 ESE 6 9 29.87 1012 10 16 0.00 0.00
5:53 am 05:53 Clear 72 22.2 62 16.7 71 71 SE 10 17 29.87 1012 10 16 0.00 0.00
6:53 am 06:53 Clear 71 21.7 60 15.6 68 68 ESE 9 15 29.89 1012 10 16 0.00 0.00
7:53 am 07:53 Sunny 69 20.6 61 16.1 76 76 E 9 15 29.93 1013 10 16 0.00 0.00
8:53 am 08:53 Sunny 73 22.8 63 17.2 71 71 SE 17 28 29.93 1014 10 16 0.00 0.00
9:53 am 09:53 Sunny 76 24.4 64 17.8 67 67 SE 16 26 29.95 1014 10 16 0.00 0.00
10:53 am 10:53 Sunny 80 26.7 64 17.8 58 58 SE 14 22 29.96 1015 10 16 0.00 0.00
11:53 am 11:53 Sunny 83 28.3 64 17.8 53 53 SSE 17 28 29.96 1015 10 16 0.00 0.00
12:53 pm 12:53 Mostly Sunny 87 30.6 62 16.7 43 43 SSE 17 28 29.93 1014 10 16 0.00 0.00
1:53 pm 13:53 Partly Cloudy 86 30 61 16.1 43 43 SSE 13 20 29.91 1013 10 16 0.00 0.00
2:53 pm 14:53 Mostly Sunny 87 30.6 58 14.4 37 37 SE 12 19 29.89 1012 10 16 0.00 0.00
3:53 pm 15:53 Mostly Sunny 90 32.2 56 13.3 32 32 SSE 13 20 29.88 1012 10 16 0.00 0.00
4:53 pm 16:53 Mostly Cloudy 90 32.2 55 12.8 31 31 SE 15 24 29.88 1012 10 16 0.00 0.00
5:53 pm 17:53 Mostly Sunny 89 31.7 53 11.7 29 29 SE 12 19 29.88 1012 10 16 0.00 0.00
6:53 pm 18:53 Sunny 87 30.6 53 11.7 31 31 SE 14 22 29.88 1012 10 16 0.00 0.00
7:53 pm 19:53 Clear 84 28.9 55 12.8 37 37 SE 8 13 29.91 1013 10 16 0.00 0.00
8:53 pm 20:53 Mostly Cloudy 81 27.2 54 12.2 39 39 ENE 5 7 29.94 1014 10 16 0.00 0.00
9:53 pm 21:53 Clear 73 22.8 63 17.2 71 71 NE 17 28 29.97 1015 10 16 0.00 0.00
10:53 pm 22:53 Partly Cloudy 71 21.7 63 17.2 76 76 NNE 12 19 30.00 1016 10 16 0.00 0.00
11:53 pm 23:53 Clear 71 21.7 62 16.7 73 73 NE 12 19 30.00 1016 10 16 0.00 0.00

Powered by AerisWeather